Weather History for Phuket, Thailand

Change the Weather History Date:

Monday, October 8, 2012

  Actual Average Record
Temperature  
Mean Temperature 82 °F -  
Max Temperature 89 °F 87 °F 91 °F (2002)
Min Temperature 74 °F 76 °F 73 °F (2007)
Cooling Degree Days 16    
Growing Degree Days 32 (Base 50)    
Moisture  
Dew Point 73 °F    
Average Humidity 80    
Maximum Humidity 94    
Minimum Humidity 70    
Precipitation  
Precipitation 0.75 in 0.40 in - ()
Sea Level Pressure  
Sea Level Pressure 29.82 in    
Wind  
Wind Speed 11 mph ()    
Max Wind Speed 109 mph    
Max Gust Speed 25 mph    
Visibility 5.4 miles    
Events Rain    
Averages and records for this station are not official NWS values.
T = Trace of Precipitation, MM = Missing Value Source: Averaged Metar Reports

Daily Weather History Graph

Daily Weather History Graph

Search for Another Location

Airport:

Trip Planner

Search our weather history database for the weather conditions in past years. The results will help you decide how hot, cold, wet, or windy it might be!

Date:

Astronomy

Oct. 08, 2012 Rise Set
Actual Time 6:14 AM ICT 6:14 PM ICT
Civil Twilight 5:53 AM ICT 6:35 PM ICT
Nautical Twilight 5:29 AM ICT 6:59 PM ICT
Astronomical Twilight 5:04 AM ICT 7:23 PM ICT
Moon No Moon Rise 12:29 PM ICT (10/8)
Length of Visible Light 12h 41m
Length of Day
11h 59m
Waning Gibbous, 51% of the Moon is Illuminated
Oct 8
Waning Gibbous
Oct 8
Last Quarter
Oct 15
New
Oct 22
First Quarter
Oct 30
Full

Hourly Weather History & Observations

Time (ICT) Temp. Heat Index Dew Point Humidity Pressure Visibility Wind Dir Wind Speed Gust Speed Precip Events Conditions
12:00 AM 78.8 °F - 71.6 °F 78% 29.86 in 6.2 mi WNW 5.8 mph - N/A   Mostly Cloudy
12:30 AM 77.0 °F - 71.6 °F 83% 29.83 in 6.2 mi West 5.8 mph - N/A   Scattered Clouds
1:00 AM 79 °F - 76 °F 87% 29.81 in 6 mi Calm Calm - -   Scattered Clouds
1:00 AM 77.0 °F - 71.6 °F 83% 29.83 in 6.2 mi WNW 8.1 mph - N/A   Scattered Clouds
2:00 AM 77.0 °F - 71.6 °F 83% 29.83 in 6.2 mi NNW 109.3 mph - N/A   Scattered Clouds
3:00 AM 78.8 °F - 73.4 °F 83% 29.80 in 6.2 mi NNW 5.8 mph - N/A   Scattered Clouds
3:30 AM 77.0 °F - 73.4 °F 89% 29.80 in 6.2 mi Calm Calm - N/A   Scattered Clouds
4:00 AM 77.0 °F - 73.4 °F 89% 29.80 in 6.2 mi Calm Calm - N/A   Mostly Cloudy
4:30 AM 75.2 °F - 73.4 °F 94% 29.80 in 6.2 mi Calm Calm - N/A   Mostly Cloudy
5:00 AM 77.0 °F - 73.4 °F 89% 29.80 in 6.2 mi Calm Calm - N/A   Mostly Cloudy
5:30 AM 78.8 °F - 73.4 °F 83% 29.80 in 6.2 mi NNW 3.5 mph - N/A   Mostly Cloudy
6:00 AM 77.0 °F - 73.4 °F 89% 29.83 in 6.2 mi Calm Calm - N/A   Mostly Cloudy
6:30 AM 77.0 °F - 73.4 °F 89% 29.83 in 6.2 mi Calm Calm - N/A   Mostly Cloudy
7:00 AM 77 °F - 75 °F 93% 29.81 in 6 mi Calm Calm - -   Scattered Clouds
8:00 AM 84.2 °F 92.3 °F 75.2 °F 74% 29.86 in 6.2 mi West 9.2 mph - N/A   Mostly Cloudy
8:30 AM 77.0 °F - 71.6 °F 83% 29.89 in 3.7 mi West 5.8 mph 25.3 mph N/A Rain Light Rain
9:00 AM 77.0 °F - 73.4 °F 89% 29.89 in 0.6 mi WNW 9.2 mph - N/A Rain Heavy Rain
9:30 AM 75.2 °F - 73.4 °F 94% 29.89 in 3.1 mi Variable 4.6 mph - N/A Rain Rain
10:00 AM 78.8 °F - 73.4 °F 83% 29.89 in 4.3 mi WNW 13.8 mph - N/A   Mostly Cloudy
10:30 AM 80.6 °F 85.4 °F 73.4 °F 79% 29.89 in 4.3 mi WNW 12.7 mph - N/A   Mostly Cloudy
12:00 PM 82.4 °F 88.2 °F 73.4 °F 74% 29.83 in 5.0 mi West 16.1 mph - N/A   Mostly Cloudy
12:30 PM 82.4 °F 89.5 °F 75.2 °F 79% 29.83 in 5.0 mi WNW 16.1 mph - N/A   Mostly Cloudy
1:00 PM 83 °F - 76 °F 73% 29.82 in 6 mi WNW 11.5 mph - -   Partly Cloudy
1:00 PM 82.4 °F 89.5 °F 75.2 °F 79% 29.80 in 5.6 mi WNW 15.0 mph - N/A   Mostly Cloudy
1:30 PM 84.2 °F 92.3 °F 75.2 °F 74% 29.80 in 5.6 mi West 18.4 mph - N/A   Mostly Cloudy
2:00 PM 82.4 °F 88.2 °F 73.4 °F 74% 29.80 in 5.6 mi WNW 13.8 mph - N/A   Mostly Cloudy
2:30 PM 82.4 °F 89.5 °F 75.2 °F 79% 29.80 in 5.6 mi West 16.1 mph - N/A   Mostly Cloudy
3:00 PM 84.2 °F 90.9 °F 73.4 °F 70% 29.77 in 5.6 mi West 18.4 mph - N/A   Mostly Cloudy
3:30 PM 82.4 °F 88.2 °F 73.4 °F 74% 29.77 in 5.6 mi West 16.1 mph - N/A   Mostly Cloudy
4:00 PM 84.2 °F 90.9 °F 73.4 °F 70% 29.77 in 5.6 mi West 16.1 mph - N/A   Mostly Cloudy
4:30 PM 82.4 °F 88.2 °F 73.4 °F 74% 29.77 in 5.6 mi WNW 12.7 mph - N/A   Mostly Cloudy
5:00 PM 84.2 °F 90.9 °F 73.4 °F 70% 29.77 in 5.6 mi West 17.3 mph - N/A   Mostly Cloudy
5:30 PM 82.4 °F 87.2 °F 71.6 °F 70% 29.80 in 5.6 mi West 17.3 mph - N/A   Mostly Cloudy
6:00 PM 82.4 °F 88.2 °F 73.4 °F 74% 29.80 in 5.0 mi West 11.5 mph - N/A   Mostly Cloudy
6:30 PM 80.6 °F 84.6 °F 71.6 °F 74% 29.80 in 5.0 mi WNW 9.2 mph - N/A   Mostly Cloudy
7:00 PM 82 °F - 77 °F 81% 29.77 in 6 mi West 10.4 mph - -   Scattered Clouds
7:00 PM 80.6 °F 85.4 °F 73.4 °F 79% 29.83 in 5.0 mi West 8.1 mph - N/A   Mostly Cloudy
7:30 PM 80.6 °F 84.6 °F 71.6 °F 74% 29.83 in 5.0 mi West 16.1 mph - N/A   Mostly Cloudy
8:00 PM 80.6 °F 85.4 °F 73.4 °F 79% 29.83 in 5.0 mi West 11.5 mph - N/A   Mostly Cloudy
8:30 PM 80.6 °F 85.4 °F 73.4 °F 79% 29.83 in 5.0 mi West 11.5 mph - N/A   Mostly Cloudy
9:00 PM 80.6 °F 85.4 °F 73.4 °F 79% 29.86 in 5.0 mi West 13.8 mph - N/A   Mostly Cloudy
9:30 PM 80.6 °F 85.4 °F 73.4 °F 79% 29.86 in 5.0 mi West 13.8 mph - N/A   Mostly Cloudy
10:00 PM 80.6 °F 84.6 °F 71.6 °F 74% 29.86 in 5.0 mi West 11.5 mph - N/A   Mostly Cloudy
10:30 PM 80.6 °F 85.4 °F 73.4 °F 79% 29.86 in 5.0 mi West 13.8 mph - N/A   Mostly Cloudy
11:00 PM 80.6 °F 85.4 °F 73.4 °F 79% 29.86 in 5.0 mi WNW 6.9 mph - N/A   Mostly Cloudy
11:30 PM 80.6 °F 85.4 °F 73.4 °F 79% 29.83 in 5.0 mi West 8.1 mph - N/A   Mostly Cloudy